Weather History for Monroe, MI

Change the Weather History Date:

Monday, August 12, 2013

  Actual Average Record
Temperature  
Mean Temperature 70 °F -  
Max Temperature 75 °F 82 °F 97 °F (1944)
Min Temperature 66 °F 59 °F 47 °F (1979)
Cooling Degree Days 6    
Growing Degree Days 20 (Base 50)    
Moisture  
Dew Point 66 °F    
Average Humidity 88    
Maximum Humidity 100    
Minimum Humidity 78    
Precipitation  
Precipitation 0.00 in - - ()
Sea Level Pressure  
Sea Level Pressure 29.97 in    
Wind  
Wind Speed 2 mph (South)    
Max Wind Speed 12 mph    
Max Gust Speed -    
Visibility 8 miles    
Events Rain    
Averages and records for this station are not official NWS values.
T = Trace of Precipitation, MM = Missing Value Source: NWS Daily Summary

Daily Weather History Graph

Daily Weather History Graph

Search for Another Location

Airport:

Trip Planner

Search our weather history database for the weather conditions in past years. The results will help you decide how hot, cold, wet, or windy it might be!

Date:

Astronomy

Aug. 12, 2013 Rise Set
Actual Time 6:38 AM EDT 8:37 PM EDT
Civil Twilight 6:08 AM EDT 9:08 PM EDT
Nautical Twilight 5:31 AM EDT 9:45 PM EDT
Astronomical Twilight 4:50 AM EDT 10:25 PM EDT
Moon 12:35 PM EDT (8/12) 11:22 PM EDT (8/12)
Length of Visible Light 14h 59m
Length of Day
13h 58m
Waxing Crescent, 31% of the Moon is Illuminated
Aug 12
Waxing Crescent
Aug 14
First Quarter
Aug 20
Full
Aug 28
Last Quarter
Sep 5
New

Hourly Weather History & Observations

Time (EDT) Temp. Dew Point Humidity Pressure Visibility Wind Dir Wind Speed Gust Speed Precip Events Conditions
12:14 AM 69.8 °F 64.4 °F 83% 30.06 in 10.0 mi Calm Calm - N/A   Scattered Clouds
12:34 AM 68.0 °F 64.4 °F 88% 30.07 in 10.0 mi Calm Calm - N/A   Scattered Clouds
12:54 AM 69.8 °F 64.4 °F 83% 30.07 in 10.0 mi Calm Calm - N/A   Overcast
1:14 AM 69.8 °F 64.4 °F 83% 30.06 in 10.0 mi Calm Calm - N/A   Overcast
1:34 AM 69.8 °F 64.4 °F 83% 30.06 in 10.0 mi Calm Calm - N/A   Overcast
1:54 AM 69.8 °F 64.4 °F 83% 30.05 in 10.0 mi Calm Calm - N/A   Overcast
2:14 AM 69.8 °F 64.4 °F 83% 30.05 in 10.0 mi Calm Calm - N/A   Overcast
2:34 AM 69.8 °F 64.4 °F 83% 30.05 in 10.0 mi Calm Calm - N/A   Overcast
2:55 AM 69.8 °F 64.4 °F 83% 30.05 in 10.0 mi Calm Calm - N/A   Overcast
3:15 AM 69.8 °F 64.4 °F 83% 30.04 in 10.0 mi Calm Calm - N/A   Overcast
3:35 AM 69.8 °F 62.6 °F 78% 30.03 in 10.0 mi Calm Calm - N/A   Overcast
3:55 AM 68.0 °F 64.4 °F 88% 30.03 in 10.0 mi Calm Calm - N/A   Overcast
4:15 AM 68.0 °F 64.4 °F 88% 30.03 in 10.0 mi Calm Calm - N/A   Mostly Cloudy
4:35 AM 66.2 °F 64.4 °F 94% 30.03 in 10.0 mi Calm Calm - N/A   Mostly Cloudy
4:55 AM 66.2 °F 64.4 °F 94% 30.03 in 10.0 mi Calm Calm - N/A   Overcast
5:15 AM 68.0 °F 64.4 °F 88% 30.03 in 10.0 mi Calm Calm - N/A   Overcast
5:35 AM 68.0 °F 64.4 °F 88% 30.02 in 10.0 mi Calm Calm - N/A   Overcast
5:55 AM 68.0 °F 64.4 °F 88% 30.02 in 10.0 mi Calm Calm - N/A   Mostly Cloudy
6:16 AM 68.0 °F 64.4 °F 88% 30.02 in 10.0 mi Calm Calm - N/A   Overcast
6:36 AM 68.0 °F 64.4 °F 88% 30.03 in 7.0 mi Calm Calm - N/A Rain Light Rain
6:56 AM 68.0 °F 66.2 °F 94% 30.03 in 10.0 mi Calm Calm - N/A Rain Light Rain
7:16 AM 66.2 °F 66.2 °F 100% 30.03 in 10.0 mi Calm Calm - N/A   Light Drizzle
7:36 AM 68.0 °F 64.4 °F 88% 30.03 in 10.0 mi Calm Calm - N/A   Overcast
7:51 AM 68.0 °F 66.2 °F 94% 30.03 in 10.0 mi Calm Calm - N/A   Mostly Cloudy
8:15 AM 69.8 °F 64.4 °F 83% 30.02 in 10.0 mi SW 2.3 mph - N/A   Overcast
8:35 AM 68.0 °F 66.2 °F 94% 30.03 in 7.0 mi NW 8.1 mph - N/A   Overcast
8:55 AM 66.2 °F 64.4 °F 94% 30.04 in 2.0 mi WNW 6.9 mph - N/A   Overcast
9:15 AM 66.2 °F 64.4 °F 94% 30.04 in 2.5 mi WNW 4.6 mph - N/A   Overcast
9:35 AM 66.2 °F 64.4 °F 94% 30.03 in 2.0 mi WSW 1.2 mph - N/A   Overcast
9:55 AM 66.2 °F 64.4 °F 94% 30.04 in 1.5 mi WNW 3.5 mph - N/A   Overcast
10:15 AM 66.2 °F 66.2 °F 100% 30.03 in 1.0 mi SSW 2.3 mph - N/A   Overcast
10:35 AM 66.2 °F 66.2 °F 100% 30.02 in 7.0 mi SW 6.9 mph - N/A   Mostly Cloudy
10:55 AM 68.0 °F 66.2 °F 94% 30.01 in 7.0 mi SSW 8.1 mph - N/A   Mostly Cloudy
11:19 AM 68.0 °F 66.2 °F 94% 30.02 in 5.0 mi SSW 5.8 mph - N/A Rain Rain
11:34 AM 68.0 °F 66.2 °F 94% 30.03 in 5.0 mi WSW 4.6 mph - N/A Rain Rain
11:54 AM 68.0 °F 66.2 °F 94% 30.03 in 5.0 mi WNW 6.9 mph - N/A Rain Rain
12:14 PM 66.2 °F 66.2 °F 100% 30.02 in 4.0 mi NW 3.5 mph - N/A Rain Rain
12:35 PM 66.2 °F 66.2 °F 100% 30.00 in 3.0 mi NNE 4.6 mph - N/A Rain Heavy Rain
12:55 PM 66.2 °F 66.2 °F 100% 30.01 in 1.5 mi Calm Calm - N/A Rain Heavy Rain
1:15 PM 68.0 °F 66.2 °F 94% 29.99 in 10.0 mi Calm Calm - N/A Rain Light Rain
1:35 PM 68.0 °F 66.2 °F 94% 29.99 in 7.0 mi Calm Calm - N/A Rain Rain
1:55 PM 68.0 °F 66.2 °F 94% 29.99 in 10.0 mi SSW 4.6 mph - N/A   Mostly Cloudy
2:15 PM 69.8 °F 66.2 °F 88% 29.99 in 10.0 mi SSW 5.8 mph - N/A   Mostly Cloudy
2:35 PM 71.6 °F 68.0 °F 88% 29.99 in 10.0 mi Calm Calm - N/A   Scattered Clouds
2:55 PM 71.6 °F 66.2 °F 83% 29.97 in 10.0 mi Calm Calm - N/A   Scattered Clouds
3:16 PM 71.6 °F 66.2 °F 83% 29.97 in 10.0 mi Calm Calm - N/A   Mostly Cloudy
3:36 PM 73.4 °F 68.0 °F 83% 29.96 in 10.0 mi Calm Calm - N/A   Mostly Cloudy
3:56 PM 73.4 °F 66.2 °F 78% 29.95 in 10.0 mi Calm Calm - N/A   Scattered Clouds
4:16 PM 73.4 °F 68.0 °F 83% 29.94 in 10.0 mi Calm Calm - N/A   Clear
4:36 PM 75.2 °F 68.0 °F 78% 29.93 in 10.0 mi SE 4.6 mph - N/A   Scattered Clouds
4:56 PM 75.2 °F 69.8 °F 83% 29.93 in 10.0 mi ESE 4.6 mph - N/A   Clear
5:16 PM 75.2 °F 68.0 °F 78% 29.91 in 10.0 mi SSE 3.5 mph - N/A   Clear
5:36 PM 75.2 °F 68.0 °F 78% 29.90 in 10.0 mi SSE 5.8 mph - N/A   Clear
5:56 PM 75.2 °F 68.0 °F 78% 29.90 in 10.0 mi SE 5.8 mph - N/A   Clear
6:16 PM 75.2 °F 68.0 °F 78% 29.89 in 10.0 mi SE 4.6 mph - N/A   Clear
6:32 PM 75.2 °F 68.0 °F 78% 29.88 in 10.0 mi SE 6.9 mph - N/A   Clear
6:52 PM 73.4 °F 66.2 °F 78% 29.87 in 10.0 mi SE 4.6 mph - N/A   Clear
7:12 PM 73.4 °F 68.0 °F 83% 29.87 in 10.0 mi East 3.5 mph - N/A   Clear
7:32 PM 73.4 °F 68.0 °F 83% 29.86 in 10.0 mi ESE 3.5 mph - N/A   Clear
7:52 PM 73.4 °F 66.2 °F 78% 29.85 in 10.0 mi SE 4.6 mph - N/A   Scattered Clouds
8:12 PM 73.4 °F 68.0 °F 83% 29.85 in 10.0 mi South 3.5 mph - N/A Rain Light Rain
8:32 PM 71.6 °F 69.8 °F 94% 29.87 in 4.0 mi SSW 6.9 mph - N/A Rain Heavy Rain
8:52 PM 71.6 °F 69.8 °F 94% 29.85 in 10.0 mi ENE 4.6 mph - N/A   Overcast
9:12 PM 71.6 °F 69.8 °F 94% 29.85 in 10.0 mi ENE 3.5 mph - N/A   Overcast
9:33 PM 71.6 °F 69.8 °F 94% 29.86 in 10.0 mi North 11.5 mph - N/A   Mostly Cloudy
9:53 PM 71.6 °F 66.2 °F 83% 29.86 in 10.0 mi Calm Calm - N/A Rain Light Rain
10:13 PM 69.8 °F 66.2 °F 88% 29.86 in 3.0 mi Calm Calm - N/A Rain Heavy Rain
10:33 PM 69.8 °F 66.2 °F 88% 29.85 in 10.0 mi Calm Calm - N/A Rain Light Rain
10:53 PM 68.0 °F 66.2 °F 94% 29.86 in 10.0 mi Calm Calm - N/A   Mostly Cloudy
11:13 PM 68.0 °F 66.2 °F 94% 29.86 in 10.0 mi Calm Calm - N/A   Mostly Cloudy
11:33 PM 68.0 °F 66.2 °F 94% 29.86 in 7.0 mi North 9.2 mph - N/A   Overcast
11:53 PM 69.8 °F 66.2 °F 88% 29.86 in 10.0 mi NW 4.6 mph - N/A Rain Light Rain